Location: ??????
(55.6130°N, 37.7882°E)
Time: 22:29:33
(UTC+00:00)

RESURS DK-1 - Visible Passes

Search period start: 14 July 2024 00:00
Search period end: 24 July 2024 00:00
Orbit: 539 x 548 km, 69.9° (Epoch: 13 July)

Date Brightness Start Highest point End Pass type
(mag) Time Alt. Az. Time Alt. Az. Time Alt. Az.
21 Jul 5.0 00:06:38 10° ESE 00:07:59 11° ESE 00:09:20 10° E visible
21 Jul 4.9 23:59:18 10° SE 00:01:15 13° ESE 00:03:12 10° ENE visible
22 Jul 4.8 23:52:07 10° SE 23:54:30 15° ESE 23:56:53 10° ENE visible
23 Jul 4.6 23:45:02 10° SSE 23:47:45 17° ESE 23:50:28 10° ENE visible
